Location: Taupo
(38.6830°S, 176.0830°E)
Time: 09:06:03
(UTC+12:00)

BREEZE-M DEB (TANK) - Visible Passes

Search period start: 19 April 2019 00:00
Search period end: 29 April 2019 00:00
Orbit: 289 x 13996 km, 46.1° (Epoch: 17 April)

Date Brightness Start Highest point End Pass type
(mag) Time Alt. Az. Time Alt. Az. Time Alt. Az.
19 Apr 8.7 04:44:20 10° N 06:28:28 48° NE 07:00:11 10° ESE visible
20 Apr 9.8 02:59:18 10° NE 03:55:37 19° ENE 04:26:20 10° ESE visible
21 Apr 8.8 04:30:07 10° N 06:15:32 49° NE 06:48:16 10° ESE visible
22 Apr 9.8 02:44:20 10° NE 03:42:46 20° ENE 04:14:33 10° ESE visible
23 Apr 8.8 04:15:54 10° N 06:02:29 50° NE 06:36:17 10° ESE visible
24 Apr 9.7 02:29:25 10° NE 03:29:48 20° ENE 04:02:39 10° ESE visible
24 Apr 7.8 06:31:15 10° NNW 08:26:34 81° NE 08:48:21 10° ESE visible
25 Apr 8.9 04:01:42 10° N 05:49:21 51° ENE 06:24:12 10° ESE visible
26 Apr 9.6 02:14:34 10° NE 03:16:44 21° ENE 03:50:38 10° ESE visible
26 Apr 7.9 06:16:42 10° NNW 08:13:44 82° NE 08:36:20 10° ESE visible
27 Apr 8.9 03:47:31 10° N 05:36:03 51° ENE 06:12:04 10° ESE visible
28 Apr 9.6 01:59:45 10° NE 03:03:34 21° ENE 03:38:30 10° ESE visible
28 Apr 7.9 06:02:10 10° NNW 08:00:48 82° NE 08:24:15 10° ESE visible
